FW1989 Weather Reports


time (UTC)temp
C
wind
direction
speed
KPH
gust
KPH
rain 1hr
cm
rain 24hr
cm
rain mn
cm
humidity
%
barometer
mb
20260503203014 11 153 20.9 27.4 0.00 0.23 0.23 78 1010.9
20260503201507 11 138 16.1 22.5 0.00 0.23 0.23 82 1011.3
20260503200003 10 130 12.9 20.9 0.03 0.23 0.23 84 1011.9
20260503194600 9 138 12.9 22.5 0.18 0.23 0.23 84 1012.4
20260503193101 8 148 8.0 16.1 0.23 0.23 0.23 84 1012.8
20260503191617 8 153 4.8 9.7 0.23 0.23 0.23 83 1013.1
20260503190051 8 218 9.7 30.6 0.20 0.20 0.20 78 1014.0
20260503184557 10 209 8.0 14.5 0.05 0.05 0.05 76 1014.2
20260503183107 10 293 16.1 41.8 0.00 0.00 0.00 72 1014.2
20260503181546 11 249 38.6 56.3 0.00 0.00 0.00 60 1013.7
20260503180047 13 217 19.3 29.0 0.00 0.00 0.00 52 1013.3
20260503174545 14 245 24.1 45.1 0.00 0.00 0.00 50 1013.4
20260503173110 15 206 16.1 40.2 0.00 0.00 0.00 49 1013.6
20260503171545 14 200 20.9 43.5 0.00 0.00 0.00 50 1013.8
20260503081524 6 217 11.3 16.1 0.00 0.00 0.00 64 1015.6
20260503071516 6 222 9.7 17.7 0.00 0.00 0.00 63 1015.8
20260503054504 6 203 9.7 14.5 0.00 0.00 0.00 61 1016.4
20260503053001 6 207 11.3 16.1 0.00 0.00 0.00 60 1016.6
20260503051606 6 208 9.7 14.5 0.00 0.00 0.00 61 1016.6
20260503050057 6 208 11.3 14.5 0.00 0.00 0.00 62 1016.7
20260503044600 6 205 11.3 14.5 0.00 0.00 0.00 63 1016.7
20260503043055 6 209 9.7 12.9 0.00 0.00 0.00 63 1016.7
20260503041605 6 208 8.0 12.9 0.00 0.00 0.00 63 1016.7
20260503040056 6 204 8.0 12.9 0.00 0.00 0.00 62 1016.7
20260503034604 6 208 9.7 11.3 0.00 0.00 0.00 62 1016.7
20260503033052 6 207 11.3 12.9 0.00 0.00 0.00 62 1016.7
20260503031547 6 205 9.7 12.9 0.00 0.00 0.00 61 1016.7
20260503030053 5 207 6.4 9.7 0.00 0.00 0.00 69 1016.8
20260503024548 5 221 3.2 6.4 0.00 0.00 0.00 68 1016.9
20260503023045 6 275 1.6 4.8 0.00 0.00 0.00 66 1016.9
20260503021546 6 285 1.6 3.2 0.00 0.00 0.00 61 1016.9
20260503020046 7 286 0.0 0.0 0.00 0.00 0.00 57 1016.8
20260503014548 7 286 1.6 3.2 0.00 0.00 0.00 51 1016.7
20260503013043 8 294 1.6 4.8 0.00 0.00 0.00 46 1016.5
20260503011544 8 294 0.0 3.2 0.00 0.00 0.00 41 1016.6
20260503010045 8 294 0.0 3.2 0.00 0.00 0.00 42 1016.5
20260503004543 9 330 0.0 4.8 0.00 0.00 0.00 41 1016.5
20260503003041 9 331 3.2 8.0 0.00 0.00 0.00 40 1016.5
20260503001540 10 333 8.0 12.9 0.00 0.00 0.00 42 1016.5
20260503000039 10 331 14.5 20.9 0.00 0.00 0.00 40 1016.4
20260502234539 10 348 11.3 16.1 0.00 0.00 0.00 39 1016.4
20260502233043 10 344 16.1 24.1 0.00 0.00 0.00 38 1016.4
20260502231537 10 355 12.9 24.1 0.00 0.00 0.00 39 1016.5
20260502230036 11 360 17.7 27.4 0.00 0.00 0.00 39 1016.5
20260502224535 10 346 17.7 30.6 0.00 0.00 0.00 35 1016.5
20260502223036 11 323 16.1 32.2 0.00 0.00 0.00 34 1016.5
20260502221534 11 316 19.3 27.4 0.00 0.00 0.00 36 1016.5
20260502220040 10 321 25.7 35.4 0.00 0.00 0.00 36 1016.6
20260502214533 10 350 19.3 32.2 0.00 0.00 0.00 36 1016.5
20260502213029 10 9 19.3 30.6 0.00 0.00 0.00 38 1016.5
20260502211542 10 355 29.0 35.4 0.00 0.00 0.00 38 1016.4
20260502210027 10 321 24.1 32.2 0.00 0.00 0.00 39 1016.5
20260502204526 10 329 20.9 33.8 0.00 0.00 0.00 38 1016.6